Wind_Speed
32 30 28 26 24 22 20 17 16 15 14 13 12 11 11 10 9 9 8 7 6 5 4 3 3 2 2 2 1 1 1 1 1 1 2 3 4 5 6 8 9 10 10
34 33 31 29 26 24 22 20 18 17 15 15 14 13 12 11 11 10 9 8 7 6 5 5 4 4 3 3 2 2 2 2 2 2 3 4 5 6 7 8 9 10 11
36 35 33 31 29 26 25 23 21 19 18 17 15 15 14 13 12 12 11 10 9 8 7 6 5 5 5 4 4 3 3 3 3 3 4 5 6 7 8 9 10 11 12
38 37 36 33 31 29 27 25 23 21 20 18 17 16 15 14 14 13 12 11 10 9 9 8 7 7 6 6 5 5 5 5 5 5 5 6 7 8 9 10 11 12 13
40 39 38 36 34 31 29 27 25 23 22 21 19 18 17 16 15 15 14 13 12 11 11 10 9 8 8 7 7 7 7 7 7 7 7 8 8 9 10 11 12 13 14
41 40 39 38 36 34 32 29 27 25 24 23 21 20 19 18 17 16 15 15 14 13 12 12 11 10 10 9 9 9 9 9 9 9 9 10 10 11 12 13 14 14 15
42 41 41 40 38 36 34 32 30 28 26 25 23 22 21 20 19 18 17 16 15 15 14 13 13 12 11 11 11 11 11 10 10 10 11 11 12 13 14 14 15 16 17
43 42 43 42 40 39 37 34 32 30 28 26 25 24 23 22 21 20 19 18 17 16 16 15 14 14 13 13 12 12 12 12 12 13 13 13 14 15 15 16 17 18 19
46 44 44 43 42 40 39 36 34 32 30 28 27 26 24 24 23 22 21 20 19 19 18 17 16 16 15 15 14 14 14 15 14 15 15 16 16 17 18 18 19 20 20
48 46 45 45 44 42 40 38 36 34 32 30 29 28 26 26 25 24 23 22 21 21 20 19 18 18 17 17 16 16 16 16 16 17 17 18 18 19 20 20 21 22 22
50 48 47 46 45 43 42 41 38 36 34 32 31 30 29 27 26 26 25 24 23 23 22 21 20 20 19 19 19 19 19 18 18 19 20 20 21 21 22 22 22 23 24
51 50 48 47 46 45 44 43 41 38 36 34 32 31 30 29 28 27 26 26 25 24 24 23 22 22 22 21 21 21 21 21 21 21 22 22 23 23 23 24 24 25 25
53 52 49 48 48 46 45 44 43 41 39 36 34 33 32 31 30 29 28 28 27 26 25 25 24 24 24 23 23 23 23 23 23 24 24 24 25 25 25 26 26 26 27
52 53 51 48 48 47 46 45 43 42 41 39 37 35 34 33 32 31 31 29 28 28 27 27 26 26 25 26 25 25 26 26 26 26 26 26 26 27 27 27 28 28 28
51 51 52 50 48 47 47 48 46 44 42 41 40 38 36 36 35 33 32 31 30 30 29 28 28 27 27 27 27 28 28 28 28 28 28 29 29 29 29 29 29 29 29
51 51 51 52 50 48 48 48 47 46 45 44 43 40 39 37 36 35 34 33 32 32 31 31 30 30 30 29 29 29 30 30 30 30 30 31 31 30 30 30 31 31 31
49 49 48 50 51 48 48 47 47 46 45 45 45 43 41 40 39 38 37 36 35 34 33 32 32 32 31 31 31 31 31 31 31 31 32 32 32 32 32 32 32 33 33
47 47 47 48 48 46 46 45 45 45 44 44 44 43 42 41 39 39 39 39 37 36 35 34 33 33 33 33 33 33 32 32 33 33 33 33 34 34 34 34 34 34 34
46 46 46 46 46 44 43 45 45 44 43 43 44 43 42 41 41 41 41 39 38 37 36 36 35 35 35 35 35 34 34 34 35 34 34 34 35 35 34 34 34 34 35
43 44 46 45 46 46 44 43 44 43 44 43 43 43 42 42 41 40 39 39 38 37 38 38 37 38 37 37 37 36 36 36 37 36 36 36 36 36 35 35 35 35 35
39 40 41 44 44 44 43 42 41 42 44 43 42 42 42 42 42 41 40 39 39 39 39 39 39 39 39 39 39 39 39 39 38 38 38 37 37 37 36 36 36 36 37
37 37 38 40 40 40 39 37 37 40 42 42 42 43 42 42 42 42 42 42 41 41 42 41 41 41 41 41 41 41 41 40 40 39 38 38 38 38 38 37 37 37 38
34 35 35 39 40 38 38 37 35 37 39 42 42 42 42 43 44 45 45 45 45 45 45 44 44 43 43 42 42 42 42 42 41 40 40 40 39 38 38 39 39 39 39
33 33 32 33 36 37 38 38 36 37 37 38 41 42 43 45 46 47 47 47 47 47 47 46 47 46 46 45 44 44 44 42 41 41 41 41 40 40 40 40 40 41 40
29 30 30 31 33 34 35 36 37 37 37 37 38 40 43 46 48 49 49 49 49 49 49 48 48 48 48 47 47 46 46 44 44 43 42 41 42 41 41 41 40 40 40
25 27 28 30 31 32 33 35 35 35 38 38 37 39 42 45 46 48 49 50 49 48 49 49 49 49 48 48 47 47 46 45 44 43 43 42 41 41 41 41 41 41 42
Wind_Direction
232 234 236 236 237 238 240 241 244 244 244 244 244 246 246 246 245 248 251 258 265 270 272 272 269 268 265 254 243 246 256 281 336 345 349 352 353 354 354 354 353 353 353
232 233 235 235 236 237 238 238 242 243 244 244 244 245 245 246 247 248 251 255 260 264 268 267 265 265 264 261 260 259 259 272 291 305 320 331 336 338 341 342 343 344 345
234 233 234 235 236 236 237 238 239 242 243 244 244 245 245 246 248 249 251 254 257 260 264 264 263 265 264 259 259 262 265 273 280 289 301 311 318 324 328 331 333 334 337
234 233 233 234 235 236 236 237 238 240 243 244 244 245 245 246 248 250 251 253 255 258 261 263 263 263 264 260 260 263 268 273 276 283 292 300 306 311 317 321 324 326 329
234 233 233 234 235 236 236 236 238 239 241 243 244 245 246 248 250 251 253 253 254 256 258 260 261 261 262 261 261 264 269 272 274 280 286 292 298 303 309 313 317 320 322
234 233 233 234 235 235 236 236 237 238 241 243 244 245 247 248 250 252 253 254 255 256 256 257 259 260 260 261 262 264 267 270 273 277 283 289 294 298 303 308 312 314 316
234 233 233 233 234 235 235 236 237 238 240 243 244 245 247 248 251 253 254 254 255 255 256 257 258 259 260 261 262 263 265 269 273 278 282 287 291 295 300 304 307 309 311
234 233 233 233 233 234 235 235 237 238 240 242 244 245 247 248 250 252 253 254 254 255 257 258 259 260 261 261 262 264 267 269 273 277 282 286 290 293 297 301 304 306 308
234 233 232 232 232 233 234 235 236 238 239 242 244 245 247 249 250 251 252 254 255 256 257 258 259 260 262 262 263 266 269 272 275 278 282 286 289 292 295 298 301 303 305
233 232 231 231 232 233 234 235 236 238 239 241 243 245 248 250 251 252 252 254 255 256 257 258 259 260 261 262 264 266 269 272 275 278 281 284 288 291 293 296 299 301 302
232 231 230 230 232 233 233 234 236 238 239 241 243 246 248 250 250 252 252 253 255 256 257 258 259 261 262 263 265 266 268 270 273 276 280 283 286 289 291 294 297 299 300
232 231 230 230 231 233 233 234 235 237 239 241 243 246 248 250 250 251 252 253 255 256 258 259 260 261 262 263 265 267 269 270 273 276 279 282 284 287 289 292 294 296 298
231 230 229 229 230 231 233 234 235 237 239 241 243 245 247 249 250 251 252 254 255 256 257 259 260 261 263 264 266 267 270 271 273 276 279 281 283 285 287 290 292 294 297
228 228 228 228 228 230 232 234 235 238 239 240 242 245 247 249 249 251 252 253 254 255 257 258 260 262 264 265 266 267 270 272 274 276 278 280 282 285 286 289 291 294 296
225 226 227 227 229 230 233 233 235 236 238 240 241 243 245 248 250 251 253 254 255 255 256 258 260 262 264 266 268 269 271 273 275 277 279 281 283 285 287 289 291 293 295
225 224 225 227 229 230 232 234 234 237 237 238 240 242 244 247 249 251 252 254 255 255 257 258 260 263 264 265 267 269 271 273 275 277 279 280 282 284 286 289 291 292 295
223 224 226 227 228 229 231 232 234 236 237 238 239 241 243 246 249 250 252 253 254 255 257 259 262 264 265 266 267 269 271 273 275 276 278 279 280 283 286 288 290 292 294
222 224 224 225 226 228 229 230 233 235 237 238 239 241 243 246 249 250 251 253 254 255 257 260 263 265 265 267 269 270 272 273 275 277 277 278 280 282 284 286 288 290 292
222 224 224 225 227 228 229 231 233 236 237 239 240 240 243 246 249 251 251 252 254 256 258 260 262 264 266 268 269 270 272 273 275 277 277 278 280 282 285 287 289 291 292
220 222 224 226 228 229 230 232 233 236 237 239 240 241 242 245 248 251 253 254 255 257 259 261 262 264 266 267 268 269 271 274 274 276 278 280 282 284 286 287 288 290 292
218 218 222 224 228 230 230 232 233 235 237 239 241 242 243 246 248 251 254 256 257 258 260 262 264 265 266 267 268 269 272 273 274 275 278 280 282 284 285 286 288 290 291
219 218 222 224 226 226 229 232 235 237 239 240 241 242 244 247 249 251 254 257 258 260 262 263 265 265 266 268 268 270 272 272 272 275 277 279 280 282 284 285 287 288 291
222 221 223 224 225 227 229 233 236 237 240 243 244 244 246 249 251 254 256 257 258 259 261 263 264 266 267 268 268 269 271 271 272 273 275 277 279 281 282 284 286 289 290
226 227 228 228 229 231 233 235 238 241 244 245 246 247 249 250 251 253 256 258 258 259 261 262 263 264 266 267 268 268 270 270 272 273 274 276 278 280 281 283 286 289 290
229 230 235 237 238 236 235 237 242 247 249 250 250 251 253 253 253 255 256 257 258 260 260 261 263 264 265 266 267 267 268 269 272 273 274 276 277 279 281 284 287 288 290
232 235 240 240 243 241 240 241 246 252 253 254 255 258 257 256 256 255 256 257 259 261 262 264 264 264 264 265 266 266 267 269 271 273 273 275 278 280 282 283 286 287 288
Height
5858 5860 5863 5865 5867 5869 5871 5872 5874 5875 5875 5876 5876 5876 5877 5877 5878 5878 5879 5879 5879 5879 5879 5879 5879 5878 5878 5878 5878 5878 5878 5878 5878 5878 5878 5878 5878 5878 5877 5877 5876 5875 5874
5854 5856 5859 5861 5864 5866 5868 5869 5871 5872 5873 5874 5874 5875 5875 5876 5876 5877 5878 5878 5878 5878 5878 5878 5878 5878 5878 5878 5878 5878 5878 5878 5878 5878 5878 5878 5878 5877 5877 5876 5876 5875 5874
5849 5852 5855 5857 5860 5862 5865 5866 5868 5870 5871 5872 5872 5873 5873 5874 5875 5876 5876 5877 5877 5877 5877 5877 5877 5877 5877 5877 5877 5877 5877 5877 5877 5877 5877 5877 5877 5876 5876 5875 5875 5874 5873
5843 5847 5850 5853 5856 5859 5861 5863 5865 5866 5868 5869 5870 5871 5871 5872 5873 5874 5875 5875 5876 5876 5876 5876 5876 5876 5876 5876 5876 5876 5876 5876 5876 5876 5876 5876 5876 5875 5875 5874 5873 5872 5871
5837 5841 5845 5848 5851 5854 5857 5859 5861 5863 5865 5866 5867 5868 5869 5870 5871 5872 5873 5873 5874 5874 5874 5875 5875 5875 5875 5875 5875 5875 5875 5875 5875 5875 5875 5875 5874 5874 5873 5872 5872 5871 5870
5831 5835 5839 5843 5847 5850 5853 5855 5857 5859 5861 5863 5864 5865 5867 5868 5868 5869 5870 5871 5872 5872 5872 5873 5873 5873 5873 5873 5873 5873 5874 5874 5874 5873 5873 5873 5872 5872 5871 5870 5870 5869 5868
5825 5830 5834 5837 5841 5845 5848 5851 5853 5855 5857 5859 5861 5862 5863 5865 5866 5867 5868 5868 5869 5870 5870 5870 5871 5871 5871 5871 5871 5871 5871 5872 5872 5872 5871 5871 5871 5870 5869 5868 5867 5866 5865
5818 5823 5827 5831 5835 5839 5842 5846 5848 5851 5853 5855 5857 5859 5860 5861 5863 5864 5865 5865 5866 5867 5868 5868 5868 5869 5869 5869 5869 5869 5869 5869 5869 5869 5869 5869 5868 5868 5867 5866 5865 5864 5862
5811 5816 5821 5825 5829 5833 5837 5840 5843 5846 5849 5851 5853 5854 5856 5858 5859 5860 5861 5862 5863 5864 5865 5865 5866 5866 5866 5866 5867 5867 5867 5867 5867 5867 5867 5866 5865 5865 5864 5863 5862 5861 5859
5803 5809 5814 5818 5822 5827 5831 5834 5838 5841 5844 5846 5848 5850 5852 5854 5855 5856 5858 5859 5860 5861 5861 5862 5862 5863 5863 5863 5864 5864 5864 5864 5864 5864 5863 5863 5862 5861 5860 5859 5858 5857 5856
5795 5801 5806 5811 5816 5820 5824 5828 5832 5835 5838 5841 5843 5845 5847 5849 5851 5852 5854 5855 5856 5857 5858 5858 5859 5859 5860 5860 5860 5860 5860 5860 5860 5860 5859 5859 5858 5858 5857 5855 5854 5853 5852
5787 5793 5798 5804 5809 5813 5818 5822 5826 5829 5833 5835 5838 5840 5842 5844 5846 5848 5849 5850 5852 5852 5853 5854 5855 5855 5856 5856 5856 5856 5856 5856 5856 5856 5855 5855 5854 5853 5852 5851 5850 5849 5847
5778 5784 5790 5796 5801 5806 5811 5815 5819 5823 5827 5830 5832 5835 5837 5839 5841 5842 5844 5846 5847 5848 5849 5850 5851 5851 5852 5852 5852 5852 5852 5852 5852 5851 5851 5850 5849 5848 5847 5846 5845 5844 5842
5769 5775 5782 5788 5793 5799 5803 5808 5812 5816 5820 5823 5826 5829 5831 5834 5835 5837 5839 5840 5842 5843 5844 5845 5846 5846 5847 5847 5847 5847 5847 5847 5847 5846 5846 5845 5844 5843 5842 5841 5840 5839 5837
5759 5765 5773 5780 5785 5790 5795 5800 5805 5808 5812 5816 5819 5822 5825 5827 5829 5831 5833 5835 5836 5837 5839 5840 5840 5841 5842 5842 5842 5842 5842 5842 5841 5841 5840 5840 5839 5838 5837 5836 5835 5833 5832
5751 5757 5765 5771 5777 5782 5787 5792 5797 5801 5804 5808 5812 5815 5818 5820 5823 5825 5827 5828 5830 5831 5833 5834 5835 5835 5836 5836 5836 5836 5836 5836 5835 5835 5834 5834 5833 5832 5831 5830 5829 5827 5826
5743 5750 5757 5763 5769 5774 5779 5784 5788 5793 5797 5800 5804 5807 5811 5813 5816 5818 5820 5822 5823 5825 5826 5827 5828 5829 5830 5830 5830 5830 5830 5829 5829 5828 5828 5827 5826 5825 5824 5823 5822 5821 5819
5736 5744 5750 5756 5761 5766 5771 5776 5781 5785 5789 5793 5796 5800 5803 5806 5809 5811 5813 5815 5816 5818 5819 5821 5822 5823 5823 5823 5823 5823 5823 5823 5822 5822 5821 5820 5819 5819 5817 5816 5815 5814 5812
5730 5736 5742 5749 5754 5759 5764 5769 5773 5777 5781 5785 5788 5792 5795 5798 5801 5803 5806 5807 5809 5811 5812 5813 5814 5815 5815 5816 5816 5816 5816 5815 5815 5814 5813 5813 5812 5811 5810 5809 5808 5807 5805
5723 5730 5735 5741 5746 5751 5757 5761 5765 5769 5773 5777 5781 5784 5788 5791 5793 5796 5798 5800 5802 5803 5805 5805 5806 5807 5807 5808 5808 5808 5808 5808 5807 5807 5806 5805 5804 5804 5803 5802 5800 5799 5797
5716 5723 5729 5734 5739 5744 5750 5754 5757 5761 5765 5769 5773 5777 5780 5783 5786 5788 5790 5792 5794 5795 5796 5797 5798 5799 5799 5799 5800 5800 5800 5799 5799 5799 5798 5797 5796 5795 5794 5794 5792 5791 5789
5711 5717 5723 5727 5732 5738 5743 5747 5750 5754 5758 5762 5765 5768 5771 5774 5777 5780 5782 5784 5785 5787 5787 5788 5789 5790 5790 5791 5791 5790 5791 5791 5791 5790 5789 5789 5788 5787 5786 5785 5784 5782 5780
5706 5711 5715 5721 5726 5731 5736 5740 5744 5747 5751 5754 5757 5760 5763 5766 5768 5771 5772 5774 5775 5777 5778 5779 5779 5780 5781 5781 5781 5781 5781 5781 5781 5781 5780 5779 5779 5778 5777 5775 5774 5773 5771
5701 5706 5711 5715 5720 5724 5729 5732 5737 5741 5744 5746 5748 5751 5754 5756 5758 5761 5762 5764 5765 5766 5767 5768 5769 5770 5770 5771 5771 5771 5771 5771 5771 5771 5771 5770 5769 5768 5767 5766 5764 5763 5761
5697 5702 5706 5709 5713 5717 5721 5725 5729 5733 5736 5739 5740 5742 5744 5746 5748 5750 5751 5753 5754 5755 5756 5757 5758 5759 5759 5760 5760 5760 5760 5760 5759 5760 5760 5760 5759 5758 5757 5756 5754 5752 5751
5693 5697 5700 5704 5707 5711 5715 5718 5721 5725 5728 5730 5731 5732 5734 5735 5737 5739 5740 5741 5743 5743 5744 5745 5746 5747 5747 5747 5748 5748 5748 5748 5749 5748 5749 5749 5748 5747 5746 5745 5744 5742 5741